[[{"header":{"parameterUnit":"m.s-1","parameterCategory":1,"la1":30.2991,"la2":30.254,"lo1":-89.0895,"lo2":-89.0444,"dy":0.0017,"dx":0.0017,"nx":28,"ny":28,"refTime":"2025-03-01T03:00:00:Z","depth":0,"parameterNumber":2,"parameterNumberName":"U-component_of_WINDS"},"data":[0,0,0,0,0,0,0,0,0,0,0,0,0,0,0,0,0,0,0,0,0,0,0,0,0,0,0,0,0,0,0,0,0,0,0,0,0,0,0,0,0,0,0,0,0,0,0,0,0,0,0,0,0,0,0,0,0,0,-2.4955,-2.4954,0,-2.4908,-2.4908,-2.4907,-2.4828,-2.4826,-2.4825,-2.4823,-2.4777,-2.4778,-2.4778,0,0,0,0,0,0,0,0,0,0,0,0,0,-2.4977,-2.4977,-2.4955,-2.4954,-2.4954,-2.4908,-2.4908,-2.4907,-2.4828,-2.4826,-2.4824,-2.4822,-2.4777,-2.4778,-2.4778,0,0,0,0,0,0,0,0,0,0,0,0,0,-2.4953,-2.4977,-2.4955,-2.4909,-2.4904,-2.4908,-2.4908,-2.4907,-2.4828,-2.4826,-2.4824,-2.4822,-2.4777,-2.4778,-2.4778,-2.4824,0,0,-2.4779,-2.4779,0,0,0,0,0,0,0,0,-2.4954,-2.4952,-2.4916,-2.4912,-2.4907,-2.4871,-2.4899,-2.4879,-2.4829,-2.4857,-2.4823,-2.482,-2.4811,-2.4808,-2.4804,-2.4822,-2.482,-2.4779,-2.4779,-2.4779,-2.4779,0,0,0,0,0,0,0,-2.4956,-2.4954,-2.4936,-2.4916,-2.491,-2.4891,-2.4885,-2.4895,-2.4847,-2.4854,-2.4848,-2.4844,-2.4808,-2.4804,-2.4803,-2.482,-2.4779,-2.4779,-2.4779,-2.4779,-2.4875,-2.4878,0,0,0,0,0,0,-2.4964,-2.4956,-2.4938,-2.4935,-2.4925,-2.4892,-2.4886,-2.4885,-2.4847,-2.4839,-2.4846,-2.484,-2.4805,-2.4802,-2.4801,-2.4854,-2.4779,-2.4779,-2.4779,-2.4873,-2.4876,-2.4878,0,0,0,0,0,0,-2.4965,-2.4964,-2.494,-2.4944,-2.4939,-2.4894,-2.4894,-2.4885,-2.4882,-2.484,-2.4832,-2.4851,-2.4803,-2.48,-2.4819,-2.4851,-2.4779,-2.4779,-2.487,-2.4874,-2.4877,-2.4961,0,0,0,0,0,0,-2.4966,-2.4964,-2.4981,-2.4945,-2.4939,-2.4959,-2.4896,-2.4886,-2.4882,-2.4875,-2.4843,-2.4835,-2.4801,-2.4819,-2.482,-2.4851,-2.478,-2.4867,-2.4872,-2.4876,-2.4955,-2.4967,-2.4977,0,0,0,0,0,-2.4967,-2.5007,-2.4982,-2.4981,-2.4959,-2.4961,-2.4958,-2.4917,-2.4885,-2.4902,-2.4876,-2.4836,-2.4848,-2.4822,-2.4822,-2.4853,-2.4865,-2.487,-2.4876,-2.495,-2.4965,-2.4977,0,0,0,0,0,0,-2.5048,-2.5001,-2.4974,-2.5002,-2.4986,-2.4947,-2.4967,-2.4933,-2.4926,-2.492,-2.4869,-2.4863,-2.4889,-2.4872,-2.4845,-2.4897,-2.485,-2.4856,-2.4907,-2.492,-2.4931,-2.4936,-2.478,0,0,0,0,0,-2.5069,-2.5074,-2.5032,-2.5062,-2.5055,-2.5013,-2.5012,-2.4982,-2.4963,-2.4957,-2.4931,-2.4916,-2.4916,-2.4917,-2.4914,-2.4952,-2.4945,-2.4973,-2.4984,-2.4993,-2.5,-2.502,-2.5033,-2.4896,-2.4896,-2.4896,0,0,-2.5113,-2.5088,-2.5094,-2.5077,-2.5061,-2.5069,-2.5008,-2.5017,-2.5022,-2.4958,-2.4975,-2.4956,-2.4935,-2.4964,-2.4976,-2.4951,-2.5036,-2.5,-2.5008,-2.5009,-2.5027,-2.504,-2.5052,-2.49,-2.4899,-2.4898,0,0,-2.5197,-2.5178,-2.5201,-2.5186,-2.5162,-2.5134,-2.514,-2.5106,-2.5091,-2.5107,-2.506,-2.5065,-2.5066,-2.5053,-2.5047,-2.5127,-2.5092,-2.5128,-2.5186,-2.5207,-2.5217,-2.5227,-2.5257,-2.5269,-2.5134,-2.5134,-2.5134,0,-2.5255,-2.5263,-2.5217,-2.523,-2.5225,-2.5166,-2.519,-2.5178,-2.5156,-2.5154,-2.5126,-2.5127,-2.5109,-2.5135,-2.5155,-2.5151,-2.5157,-2.5132,-2.5219,-2.5228,-2.5236,-2.5265,-2.5276,-2.5138,-2.5138,-2.5137,-2.5137,0,-2.5336,-2.5342,-2.5364,-2.5343,-2.534,-2.5359,-2.5317,-2.5319,-2.5289,-2.5265,-2.5282,-2.5258,-2.5251,-2.5254,-2.5225,-2.5277,-2.5263,-2.5228,-2.5181,-2.5255,-2.5281,-2.5292,-2.5145,-2.5144,-2.5142,-2.5141,0,0,-2.5471,-2.5425,-2.5434,-2.5424,-2.5394,-2.5399,-2.5415,-2.5407,-2.5411,-2.5397,-2.5411,-2.5413,-2.5381,-2.5374,-2.5343,-2.5361,-2.5428,-2.5324,-2.5323,-2.5346,-2.5486,-2.5514,-2.5528,-2.5404,-2.5406,-2.5407,-2.5489,0,-2.555,-2.5574,-2.5534,-2.5568,-2.5575,-2.5519,-2.5534,-2.5518,-2.5495,-2.5497,-2.5472,-2.5475,-2.5431,-2.5427,-2.5442,-2.5417,-2.5456,-2.541,-2.5418,-2.5419,-2.5427,-2.5541,-2.557,-2.5648,-2.5499,-2.55,-2.5501,0,-2.5646,-2.5637,-2.5672,-2.5641,-2.5642,-2.5656,-2.5646,-2.5648,-2.5629,-2.5612,-2.5605,-2.5568,-2.5583,-2.5535,-2.5556,-2.5526,-2.5527,-2.5515,-2.5517,-2.5518,-2.5466,-2.5547,-2.5672,-2.5685,-2.5517,-2.5515,-2.5514,0,-2.5743,-2.574,-2.5761,-2.5754,-2.5718,-2.5729,-2.5714,-2.5693,-2.5691,-2.5683,-2.5682,-2.5675,-2.5673,-2.5669,-2.5632,-2.5601,-2.5658,-2.5607,-2.5646,-2.5647,-2.5662,-2.5662,-2.5791,-2.5659,-2.5659,-2.5659,-2.5658,0,-2.5837,-2.5861,-2.5804,-2.5817,-2.5843,-2.5797,-2.5824,-2.5804,-2.5785,-2.5795,-2.5746,-2.5756,-2.5705,-2.571,-2.5681,-2.5705,-2.5703,-2.569,-2.5683,-2.5696,-2.5698,-2.5697,-2.5692,-2.5662,-2.5661,-2.566,-2.566,0,-2.5951,-2.5913,-2.5933,-2.5897,-2.5888,-2.5909,-2.5879,-2.589,-2.5864,-2.5877,-2.5877,-2.5836,-2.584,-2.5802,-2.5798,-2.5779,-2.5816,-2.5797,-2.5823,-2.5818,-2.5859,-2.5857,-2.5994,-2.6011,-2.5866,-2.5867,-2.5869,0,-2.6014,-2.6031,-2.5997,-2.6,-2.5988,-2.5992,-2.599,-2.5945,-2.5945,-2.5926,-2.594,-2.5939,-2.5936,-2.5944,-2.5915,-2.5912,-2.5895,-2.5943,-2.5894,-2.5908,-2.5899,-2.5899,-2.5901,-2.5955,-2.5956,-2.5958,-2.5959,0,-2.6131,-2.6112,-2.6111,-2.6104,-2.6103,-2.6095,-2.6084,-2.6089,-2.604,-2.6043,-2.6046,-2.6043,-2.6039,-2.604,-2.6032,-2.6018,-2.5982,-2.5974,-2.5983,-2.5998,-2.6013,-2.6008,-2.5853,-2.5972,-2.5971,-2.597,-2.5969,-2.5968,-2.6223,-2.6237,-2.6215,-2.6216,-2.6203,-2.6194,-2.6204,-2.6179,-2.618,-2.6173,-2.6146,-2.6154,-2.6135,-2.612,-2.611,-2.6116,-2.6093,-2.6105,-2.6109,-2.6114,-2.6122,-2.601,-2.6114,-2.6114,-2.6113,-2.6113,-2.6113,0,-2.634,-2.6323,-2.6324,-2.6311,-2.6312,-2.6276,-2.6262,-2.6266,-2.6273,-2.6258,-2.6257,-2.6261,-2.6261,-2.6232,-2.6229,-2.624,-2.6224,-2.6241,-2.6241,-2.6239,-2.6142,-2.6136,-2.6255,-2.6255,-2.6255,-2.6255,-2.6255,-2.6255,-2.6401,-2.6423,-2.6401,-2.6416,-2.6399,-2.6406,-2.6402,-2.6394,-2.6382,-2.6389,-2.6389,-2.6369,-2.635,-2.6345,-2.6345,-2.6336,-2.6339,-2.6363,-2.6349,-2.6259,-2.6246,-2.6233,-2.6226,-2.6363,-2.6363,-2.6445,-2.6446,-2.6447]},{"header":{"parameterUnit":"m.s-1","parameterCategory":1,"la1":30.2991,"la2":30.254,"lo1":-89.0895,"lo2":-89.0444,"dy":0.0017,"dx":0.0017,"nx":28,"ny":28,"refTime":"2025-03-01T03:00:00:Z","depth":0,"parameterNumber":3,"parameterNumberName":"V-component_of_WINDS"},"data":[0,0,0,0,0,0,0,0,0,0,0,0,0,0,0,0,0,0,0,0,0,0,0,0,0,0,0,0,0,0,0,0,0,0,0,0,0,0,0,0,0,0,0,0,0,0,0,0,0,0,0,0,0,0,0,0,0,0,-2.2203,-2.2204,0,-2.2267,-2.2268,-2.2268,-2.229,-2.229,-2.229,-2.229,-2.2355,-2.2357,-2.2358,0,0,0,0,0,0,0,0,0,0,0,0,0,-2.21,-2.2102,-2.2203,-2.2204,-2.2205,-2.2267,-2.2268,-2.2269,-2.229,-2.229,-2.229,-2.229,-2.2354,-2.2356,-2.2359,0,0,0,0,0,0,0,0,0,0,0,0,0,-2.2152,-2.2103,-2.2203,-2.2223,-2.2225,-2.2267,-2.2268,-2.2269,-2.229,-2.229,-2.229,-2.2289,-2.2353,-2.2356,-2.2359,-2.2385,0,0,-2.2368,-2.2369,0,0,0,0,0,0,0,0,-2.2149,-2.2156,-2.2219,-2.2222,-2.2225,-2.227,-2.2255,-2.2308,-2.2291,-2.2266,-2.229,-2.2289,-2.2327,-2.2332,-2.2345,-2.2388,-2.239,-2.2368,-2.237,-2.2371,-2.2372,0,0,0,0,0,0,0,-2.2146,-2.2154,-2.2228,-2.222,-2.2223,-2.2229,-2.2236,-2.2265,-2.2298,-2.2268,-2.227,-2.2277,-2.2328,-2.2342,-2.2346,-2.2391,-2.2368,-2.2371,-2.2373,-2.2374,-2.246,-2.2461,0,0,0,0,0,0,-2.2139,-2.215,-2.2226,-2.223,-2.2185,-2.2231,-2.2239,-2.2256,-2.2297,-2.2303,-2.2277,-2.2278,-2.2337,-2.2343,-2.2349,-2.2383,-2.2371,-2.2374,-2.2376,-2.246,-2.246,-2.2461,0,0,0,0,0,0,-2.2137,-2.2145,-2.2224,-2.2191,-2.2201,-2.2233,-2.2252,-2.2257,-2.2271,-2.2304,-2.231,-2.2285,-2.2337,-2.2345,-2.2376,-2.2385,-2.2375,-2.2378,-2.2459,-2.246,-2.2461,-2.245,0,0,0,0,0,0,-2.2134,-2.2144,-2.2154,-2.2191,-2.2203,-2.225,-2.2253,-2.2259,-2.2276,-2.2277,-2.2313,-2.2319,-2.2337,-2.2371,-2.2379,-2.2389,-2.238,-2.2458,-2.2459,-2.246,-2.245,-2.2451,-2.2451,0,0,0,0,0,-2.213,-2.2148,-2.2155,-2.2164,-2.2216,-2.225,-2.2257,-2.2278,-2.2277,-2.2287,-2.2309,-2.2318,-2.2383,-2.2374,-2.2383,-2.2394,-2.2458,-2.2459,-2.246,-2.245,-2.2451,-2.2451,0,0,0,0,0,0,-2.2111,-2.2153,-2.2161,-2.2192,-2.2217,-2.2254,-2.2268,-2.2278,-2.2304,-2.2304,-2.2328,-2.2336,-2.2366,-2.2383,-2.2373,-2.2422,-2.2421,-2.2424,-2.241,-2.2411,-2.2412,-2.2407,-2.2383,0,0,0,0,0,-2.2111,-2.2135,-2.2171,-2.2195,-2.2207,-2.2235,-2.2251,-2.2265,-2.2292,-2.2302,-2.2326,-2.2352,-2.2379,-2.2396,-2.2422,-2.2452,-2.2461,-2.2465,-2.2465,-2.2466,-2.2468,-2.2487,-2.249,-2.2465,-2.2465,-2.2465,0,0,-2.211,-2.2136,-2.215,-2.2192,-2.2213,-2.2238,-2.2244,-2.227,-2.2289,-2.2306,-2.2338,-2.2356,-2.2387,-2.2418,-2.2433,-2.2434,-2.2477,-2.2467,-2.2467,-2.247,-2.2489,-2.2491,-2.2493,-2.2466,-2.2466,-2.2465,0,0,-2.2122,-2.2144,-2.2167,-2.2189,-2.2221,-2.224,-2.2245,-2.2281,-2.2294,-2.2326,-2.234,-2.2363,-2.2408,-2.2429,-2.2446,-2.2468,-2.2478,-2.2476,-2.2479,-2.2498,-2.25,-2.2502,-2.2511,-2.2514,-2.2478,-2.2478,-2.2478,0,-2.2117,-2.2156,-2.2178,-2.2203,-2.2222,-2.2239,-2.2264,-2.2283,-2.2322,-2.2335,-2.2334,-2.2392,-2.2414,-2.2451,-2.2457,-2.2469,-2.2477,-2.2472,-2.2498,-2.25,-2.2502,-2.2511,-2.2514,-2.2477,-2.2477,-2.2477,-2.2478,0,-2.2149,-2.2175,-2.219,-2.2229,-2.2248,-2.2273,-2.2299,-2.2316,-2.2329,-2.2348,-2.2381,-2.2408,-2.244,-2.245,-2.2462,-2.249,-2.2489,-2.2493,-2.2492,-2.2503,-2.2513,-2.2516,-2.2477,-2.2477,-2.2477,-2.2477,0,0,-2.2151,-2.2202,-2.2207,-2.2226,-2.2263,-2.2284,-2.231,-2.2342,-2.2358,-2.2384,-2.2407,-2.2445,-2.2449,-2.2468,-2.2483,-2.2499,-2.2516,-2.2501,-2.2502,-2.2504,-2.2551,-2.2549,-2.2552,-2.2522,-2.2523,-2.2524,-2.2549,0,-2.2169,-2.2216,-2.2237,-2.2275,-2.2301,-2.2318,-2.2341,-2.2367,-2.2385,-2.241,-2.243,-2.2457,-2.246,-2.2472,-2.2488,-2.251,-2.2526,-2.2509,-2.2545,-2.2546,-2.2538,-2.2557,-2.2554,-2.2576,-2.2552,-2.2553,-2.2553,0,-2.2196,-2.2224,-2.2264,-2.2301,-2.2312,-2.2332,-2.2365,-2.2387,-2.2417,-2.243,-2.2452,-2.2466,-2.2494,-2.2491,-2.2531,-2.2519,-2.2535,-2.2548,-2.255,-2.2555,-2.2551,-2.2564,-2.2584,-2.2588,-2.2558,-2.2558,-2.2558,0,-2.2195,-2.2242,-2.2273,-2.2288,-2.2331,-2.2345,-2.2363,-2.2393,-2.2412,-2.244,-2.2452,-2.2483,-2.25,-2.2524,-2.2546,-2.2541,-2.2585,-2.2583,-2.2597,-2.2596,-2.2606,-2.2605,-2.263,-2.2614,-2.2614,-2.2613,-2.2613,0,-2.2213,-2.2238,-2.2274,-2.2293,-2.2322,-2.2346,-2.2373,-2.2393,-2.2419,-2.2443,-2.246,-2.2481,-2.2509,-2.2535,-2.2552,-2.2584,-2.2591,-2.2602,-2.2607,-2.2602,-2.26,-2.2613,-2.2613,-2.2614,-2.2614,-2.2614,-2.2614,0,-2.2217,-2.2242,-2.2278,-2.2316,-2.2326,-2.2345,-2.2378,-2.2398,-2.2417,-2.2447,-2.2455,-2.2486,-2.2517,-2.2542,-2.2582,-2.2594,-2.2628,-2.2632,-2.2618,-2.2621,-2.2634,-2.2633,-2.2669,-2.2676,-2.2653,-2.2653,-2.2653,0,-2.2228,-2.2247,-2.2288,-2.2306,-2.2324,-2.2352,-2.2371,-2.2396,-2.2416,-2.2452,-2.2468,-2.25,-2.2528,-2.2577,-2.2603,-2.2634,-2.264,-2.2651,-2.2645,-2.264,-2.2642,-2.2641,-2.2644,-2.2652,-2.2652,-2.2652,-2.2652,0,-2.2244,-2.2256,-2.2284,-2.2317,-2.234,-2.2367,-2.2394,-2.2407,-2.2437,-2.2458,-2.2491,-2.2512,-2.2554,-2.2586,-2.2621,-2.264,-2.2651,-2.2653,-2.2659,-2.2654,-2.2646,-2.2652,-2.2621,-2.2653,-2.2653,-2.2653,-2.2653,-2.2653,-2.2253,-2.2272,-2.2304,-2.2335,-2.2359,-2.2384,-2.2405,-2.2428,-2.2455,-2.2492,-2.2505,-2.2539,-2.2569,-2.2617,-2.2636,-2.2664,-2.2664,-2.2671,-2.2673,-2.2675,-2.2675,-2.2641,-2.267,-2.267,-2.267,-2.267,-2.267,0,-2.2272,-2.2294,-2.2322,-2.236,-2.2385,-2.2394,-2.2425,-2.2445,-2.2475,-2.2503,-2.253,-2.2568,-2.26,-2.2629,-2.2663,-2.2679,-2.2685,-2.2687,-2.2687,-2.2691,-2.2672,-2.2665,-2.2682,-2.2682,-2.2682,-2.2682,-2.2682,-2.2682,-2.2285,-2.2318,-2.2334,-2.238,-2.2401,-2.2435,-2.2452,-2.2476,-2.2499,-2.2541,-2.2568,-2.2587,-2.2616,-2.2652,-2.2682,-2.269,-2.2702,-2.2703,-2.2712,-2.2694,-2.2692,-2.2691,-2.2685,-2.2705,-2.2705,-2.273,-2.273,-2.273]}]]